QPF
0.01 0.01 0.01 0.01 0.03 0.06 0.06 0.06 0.05 0.03 0.02 0.02 0.02 0.03 0.04 0.05 0.08 0.09 0.08 0.09 0.08 0.09 0.08 0.07 0.05 0.05 0.04 0.03 0.02 0.02 0.02 0.02 0.02 0.02 0.03 0.03 0.05 0.06
0.02 0.01 0.01 0.01 0.02 0.03 0.04 0.05 0.04 0.04 0.02 0.01 0.01 0.02 0.04 0.05 0.08 0.10 0.11 0.10 0.09 0.08 0.07 0.07 0.06 0.05 0.04 0.03 0.02 0.02 0.02 0.02 0.02 0.02 0.03 0.03 0.03 0.04
0.01 0.01 0.01 0.04 0.03 0.03 0.03 0.03 0.03 0.04 0.02 0.01 0.02 0.02 0.02 0.03 0.04 0.07 0.10 0.08 0.05 0.05 0.06 0.07 0.06 0.04 0.02 0.02 0.02 0.01 0.01 0.01 0.01 0.02 0.02 0.03 0.03 0.03
0.03 0.02 0.02 0.03 0.03 0.02 0.02 0.03 0.04 0.04 0.04 0.02 0.02 0.03 0.02 0.02 0.02 0.03 0.06 0.06 0.04 0.04 0.05 0.07 0.06 0.04 0.03 0.02 0.01 0.01 0.01 0.01 0.01 0.01 0.01 0.01 0.02 0.03
0.02 0.02 0.01 0.02 0.02 0.02 0.03 0.03 0.04 0.06 0.06 0.05 0.04 0.03 0.03 0.04 0.03 0.02 0.05 0.06 0.05 0.06 0.06 0.07 0.07 0.05 0.04 0.03 0.03 0.02 0.02 0.01 0.01 0.01 0.01 0.01 0.01 0.02
0.02 0.01 0.01 0.02 0.02 0.03 0.04 0.04 0.05 0.06 0.07 0.07 0.06 0.05 0.04 0.04 0.04 0.04 0.05 0.07 0.08 0.07 0.07 0.05 0.05 0.05 0.05 0.04 0.03 0.02 0.02 0.01 0.01 0.01 0.01 0.01 0.01 0.02
0.02 0.02 0.03 0.03 0.04 0.06 0.05 0.04 0.05 0.06 0.06 0.06 0.05 0.05 0.05 0.04 0.04 0.04 0.04 0.04 0.05 0.06 0.07 0.06 0.04 0.04 0.04 0.04 0.04 0.05 0.04 0.03 0.02 0.01 0.01 0.01 0.01 0.01
0.03 0.03 0.04 0.04 0.05 0.05 0.04 0.03 0.04 0.04 0.04 0.04 0.04 0.04 0.03 0.04 0.04 0.04 0.03 0.03 0.05 0.05 0.05 0.04 0.03 0.03 0.03 0.03 0.04 0.04 0.04 0.03 0.03 0.03 0.02 0.02 0.02 0.02
0.04 0.04 0.03 0.03 0.03 0.03 0.04 0.04 0.04 0.04 0.03 0.02 0.02 0.02 0.03 0.04 0.04 0.03 0.02 0.02 0.03 0.03 0.03 0.03 0.02 0.02 0.02 0.01 0.02 0.02 0.02 0.03 0.03 0.02 0.03 0.03 0.03 0.03
0.04 0.04 0.05 0.05 0.04 0.05 0.04 0.04 0.03 0.03 0.03 0.02 0.02 0.01 0.01 0.02 0.03 0.03 0.04 0.03 0.04 0.05 0.04 0.03 0.02 0.02 0.02 0.02 0.02 0.02 0.02 0.02 0.03 0.02 0.02 0.02 0.02 0.03
0.06 0.07 0.08 0.07 0.06 0.06 0.04 0.04 0.03 0.02 0.03 0.03 0.03 0.02 0.02 0.02 0.02 0.03 0.04 0.04 0.03 0.04 0.04 0.04 0.03 0.03 0.03 0.03 0.03 0.04 0.03 0.02 0.03 0.03 0.03 0.03 0.03 0.03
0.06 0.06 0.07 0.07 0.07 0.07 0.05 0.04 0.04 0.03 0.04 0.03 0.03 0.02 0.02 0.01 0.01 0.01 0.02 0.02 0.02 0.02 0.03 0.04 0.03 0.04 0.04 0.03 0.03 0.02 0.03 0.02 0.02 0.02 0.03 0.03 0.03 0.03
0.05 0.06 0.07 0.08 0.08 0.08 0.08 0.07 0.07 0.07 0.06 0.05 0.04 0.03 0.03 0.02 0.01 0.01 0.01 0.01 0.01 0.01 0.01 0.03 0.04 0.06 0.05 0.04 0.03 0.02 0.02 0.02 0.02 0.01 0.02 0.02 0.03 0.02
0.07 0.07 0.07 0.08 0.08 0.08 0.08 0.08 0.10 0.10 0.09 0.09 0.07 0.05 0.06 0.05 0.04 0.03 0.02 0.01 0.01 0.01 0.01 0.03 0.04 0.04 0.04 0.04 0.03 0.03 0.02 0.02 0.03 0.03 0.02 0.02 0.02 0.03
0.07 0.07 0.07 0.08 0.08 0.09 0.08 0.07 0.08 0.08 0.08 0.08 0.07 0.07 0.08 0.07 0.05 0.05 0.04 0.03 0.02 0.02 0.01 0.02 0.03 0.03 0.03 0.03 0.03 0.03 0.03 0.04 0.03 0.03 0.03 0.03 0.03 0.03
0.05 0.05 0.06 0.05 0.05 0.05 0.05 0.06 0.06 0.07 0.07 0.07 0.07 0.07 0.07 0.06 0.05 0.05 0.06 0.06 0.06 0.05 0.04 0.04 0.03 0.04 0.04 0.04 0.03 0.03 0.02 0.03 0.04 0.04 0.04 0.03 0.03 0.03
0.04 0.03 0.03 0.04 0.04 0.03 0.04 0.04 0.03 0.02 0.02 0.02 0.02 0.03 0.03 0.03 0.03 0.04 0.05 0.05 0.05 0.06 0.07 0.06 0.04 0.05 0.05 0.05 0.06 0.03 0.02 0.03 0.05 0.07 0.06 0.05 0.04 0.04
0.03 0.03 0.04 0.03 0.04 0.04 0.04 0.03 0.02 0.01 0.01 0.01 0.01 0.01 0.02 0.02 0.03 0.04 0.05 0.05 0.06 0.06 0.06 0.05 0.05 0.06 0.08 0.10 0.10 0.07 0.05 0.05 0.06 0.09 0.10 0.07 0.05 0.04
0.02 0.03 0.03 0.03 0.03 0.03 0.02 0.01 0.01 0.01 0.00 0.00 0.00 0.00 0.00 0.01 0.01 0.02 0.03 0.03 0.04 0.05 0.05 0.04 0.04 0.03 0.04 0.07 0.10 0.11 0.08 0.08 0.07 0.07 0.09 0.08 0.06 0.04
0.03 0.03 0.03 0.03 0.02 0.02 0.01 0.01 0.01 0.01 0.01 0.00 0.00 0.00 0.00 0.01 0.01 0.01 0.01 0.01 0.02 0.02 0.02 0.03 0.03 0.03 0.03 0.03 0.05 0.07 0.08 0.08 0.07 0.06 0.07 0.07 0.06 0.05
0.02 0.02 0.01 0.01 0.01 0.01 0.00 0.00 0.00 0.00 0.00 0.00 0.01 0.01 0.01 0.01 0.00 0.00 0.01 0.01 0.02 0.02 0.02 0.02 0.02 0.03 0.03 0.04 0.05 0.05 0.05 0.05 0.06 0.05 0.05 0.06 0.05 0.05
0.01 0.01 0.01 0.01 0.00 0.00 0.00 0.00 0.00 0.00 0.01 0.01 0.01 0.01 0.01 0.01 0.01 0.01 0.01 0.01 0.02 0.02 0.01 0.02 0.02 0.02 0.03 0.03 0.03 0.03 0.05 0.06 0.05 0.05 0.05 0.05 0.06 0.05
0.01 0.01 0.01 0.01 0.00 0.00 0.00 0.01 0.01 0.00 0.00 0.00 0.01 0.01 0.01 0.01 0.01 0.02 0.02 0.02 0.02 0.02 0.02 0.02 0.02 0.02 0.03 0.04 0.04 0.03 0.04 0.06 0.04 0.04 0.04 0.04 0.04 0.05
MSLP
1015.87 1016.30 1016.75 1017.18 1017.55 1017.82 1017.96 1017.95 1017.80 1017.53 1017.16 1016.72 1016.25 1015.79 1015.38 1015.03 1014.78 1014.64 1014.62 1014.71 1014.90 1015.17 1015.51 1015.86 1016.22 1016.54 1016.83 1017.05 1017.23 1017.37 1017.49 1017.61 1017.75 1017.93 1018.13 1018.37 1018.63 1018.88
1015.17 1015.57 1015.98 1016.40 1016.77 1017.07 1017.27 1017.35 1017.31 1017.15 1016.90 1016.56 1016.18 1015.78 1015.40 1015.05 1014.77 1014.57 1014.47 1014.48 1014.59 1014.79 1015.07 1015.40 1015.74 1016.09 1016.40 1016.67 1016.89 1017.07 1017.22 1017.36 1017.50 1017.66 1017.85 1018.07 1018.31 1018.56
1014.47 1014.82 1015.20 1015.59 1015.96 1016.28 1016.52 1016.68 1016.75 1016.71 1016.58 1016.37 1016.11 1015.79 1015.46 1015.14 1014.85 1014.60 1014.44 1014.36 1014.38 1014.49 1014.70 1014.97 1015.29 1015.62 1015.94 1016.24 1016.50 1016.71 1016.89 1017.05 1017.20 1017.36 1017.53 1017.74 1017.97 1018.22
1013.74 1014.06 1014.41 1014.77 1015.13 1015.46 1015.75 1015.97 1016.13 1016.20 1016.20 1016.11 1015.96 1015.75 1015.49 1015.21 1014.93 1014.66 1014.44 1014.29 1014.22 1014.25 1014.37 1014.57 1014.84 1015.14 1015.45 1015.76 1016.03 1016.27 1016.48 1016.66 1016.83 1016.99 1017.18 1017.39 1017.62 1017.87
1012.97 1013.28 1013.61 1013.95 1014.30 1014.63 1014.94 1015.22 1015.44 1015.60 1015.69 1015.72 1015.68 1015.57 1015.39 1015.17 1014.92 1014.65 1014.41 1014.21 1014.07 1014.02 1014.06 1014.19 1014.39 1014.65 1014.93 1015.22 1015.50 1015.75 1015.98 1016.19 1016.38 1016.57 1016.78 1017.01 1017.26 1017.54
1012.15 1012.45 1012.78 1013.11 1013.45 1013.79 1014.10 1014.40 1014.65 1014.87 1015.03 1015.14 1015.19 1015.17 1015.08 1014.93 1014.73 1014.50 1014.26 1014.05 1013.88 1013.77 1013.75 1013.81 1013.94 1014.14 1014.38 1014.64 1014.91 1015.17 1015.41 1015.65 1015.87 1016.10 1016.35 1016.62 1016.91 1017.21
1011.26 1011.58 1011.91 1012.25 1012.58 1012.91 1013.22 1013.50 1013.76 1014.00 1014.20 1014.36 1014.47 1014.52 1014.51 1014.44 1014.32 1014.15 1013.96 1013.76 1013.59 1013.47 1013.41 1013.42 1013.50 1013.64 1013.83 1014.05 1014.30 1014.55 1014.80 1015.06 1015.32 1015.60 1015.90 1016.21 1016.55 1016.90
1010.33 1010.68 1011.03 1011.37 1011.70 1012.01 1012.29 1012.55 1012.79 1013.00 1013.20 1013.38 1013.52 1013.64 1013.70 1013.72 1013.68 1013.61 1013.49 1013.36 1013.23 1013.13 1013.06 1013.04 1013.08 1013.17 1013.31 1013.49 1013.70 1013.94 1014.20 1014.47 1014.77 1015.09 1015.44 1015.81 1016.20 1016.60
1009.40 1009.78 1010.15 1010.51 1010.83 1011.11 1011.35 1011.57 1011.76 1011.94 1012.11 1012.28 1012.44 1012.60 1012.73 1012.83 1012.90 1012.93 1012.92 1012.88 1012.82 1012.76 1012.71 1012.69 1012.71 1012.76 1012.86 1013.00 1013.18 1013.39 1013.64 1013.93 1014.26 1014.62 1015.01 1015.43 1015.86 1016.29
1008.53 1008.94 1009.33 1009.69 1010.00 1010.26 1010.46 1010.63 1010.76 1010.89 1011.02 1011.17 1011.33 1011.52 1011.71 1011.89 1012.06 1012.20 1012.30 1012.37 1012.41 1012.42 1012.41 1012.41 1012.42 1012.45 1012.52 1012.62 1012.77 1012.96 1013.20 1013.49 1013.82 1014.21 1014.62 1015.07 1015.52 1015.96
1007.76 1008.19 1008.60 1008.96 1009.26 1009.50 1009.67 1009.79 1009.88 1009.96 1010.05 1010.17 1010.33 1010.53 1010.77 1011.03 1011.28 1011.53 1011.74 1011.91 1012.04 1012.13 1012.18 1012.21 1012.23 1012.25 1012.30 1012.37 1012.49 1012.66 1012.88 1013.16 1013.49 1013.87 1014.29 1014.73 1015.18 1015.62
1007.13 1007.56 1007.98 1008.34 1008.64 1008.86 1009.01 1009.10 1009.16 1009.20 1009.27 1009.37 1009.53 1009.74 1010.01 1010.33 1010.65 1010.98 1011.28 1011.54 1011.75 1011.91 1012.01 1012.08 1012.12 1012.15 1012.18 1012.24 1012.34 1012.48 1012.68 1012.94 1013.25 1013.61 1014.00 1014.42 1014.83 1015.23
1006.62 1007.05 1007.46 1007.83 1008.13 1008.35 1008.50 1008.58 1008.63 1008.66 1008.72 1008.81 1008.97 1009.20 1009.50 1009.84 1010.21 1010.59 1010.95 1011.27 1011.54 1011.74 1011.89 1011.99 1012.05 1012.08 1012.12 1012.17 1012.26 1012.38 1012.56 1012.79 1013.06 1013.38 1013.73 1014.09 1014.45 1014.79
1006.22 1006.63 1007.03 1007.40 1007.71 1007.94 1008.11 1008.21 1008.27 1008.32 1008.39 1008.50 1008.67 1008.91 1009.21 1009.57 1009.95 1010.35 1010.73 1011.07 1011.36 1011.59 1011.76 1011.88 1011.95 1012.01 1012.05 1012.11 1012.19 1012.30 1012.46 1012.65 1012.89 1013.16 1013.44 1013.74 1014.02 1014.28
1005.87 1006.25 1006.65 1007.02 1007.34 1007.61 1007.80 1007.94 1008.05 1008.14 1008.24 1008.37 1008.56 1008.81 1009.11 1009.46 1009.83 1010.21 1010.58 1010.91 1011.19 1011.41 1011.58 1011.71 1011.79 1011.86 1011.91 1011.97 1012.06 1012.17 1012.31 1012.48 1012.67 1012.88 1013.10 1013.32 1013.52 1013.70
1005.55 1005.91 1006.30 1006.67 1007.02 1007.31 1007.55 1007.75 1007.91 1008.05 1008.20 1008.37 1008.58 1008.83 1009.13 1009.45 1009.80 1010.14 1010.46 1010.75 1010.99 1011.18 1011.33 1011.44 1011.53 1011.60 1011.66 1011.74 1011.83 1011.94 1012.06 1012.21 1012.36 1012.52 1012.67 1012.82 1012.95 1013.06
1005.27 1005.61 1005.99 1006.37 1006.74 1007.07 1007.35 1007.60 1007.82 1008.02 1008.22 1008.43 1008.66 1008.92 1009.20 1009.50 1009.80 1010.09 1010.35 1010.58 1010.76 1010.91 1011.02 1011.10 1011.17 1011.24 1011.31 1011.39 1011.48 1011.59 1011.71 1011.83 1011.95 1012.06 1012.16 1012.24 1012.31 1012.37
1005.09 1005.42 1005.79 1006.17 1006.55 1006.91 1007.24 1007.53 1007.80 1008.05 1008.29 1008.53 1008.79 1009.05 1009.32 1009.58 1009.83 1010.06 1010.26 1010.41 1010.53 1010.62 1010.68 1010.73 1010.77 1010.83 1010.89 1010.96 1011.06 1011.16 1011.26 1011.36 1011.45 1011.52 1011.57 1011.60 1011.62 1011.65
1005.09 1005.42 1005.78 1006.17 1006.55 1006.92 1007.27 1007.58 1007.88 1008.16 1008.43 1008.70 1008.96 1009.22 1009.48 1009.71 1009.92 1010.09 1010.23 1010.32 1010.37 1010.40 1010.40 1010.41 1010.42 1010.44 1010.48 1010.54 1010.62 1010.70 1010.78 1010.85 1010.90 1010.93 1010.94 1010.94 1010.93 1010.92
1005.37 1005.70 1006.07 1006.45 1006.82 1007.18 1007.52 1007.83 1008.13 1008.42 1008.69 1008.96 1009.23 1009.48 1009.72 1009.93 1010.10 1010.23 1010.31 1010.35 1010.34 1010.31 1010.27 1010.22 1010.18 1010.16 1010.17 1010.19 1010.24 1010.28 1010.33 1010.36 1010.37 1010.36 1010.33 1010.29 1010.25 1010.23
1006.01 1006.35 1006.71 1007.07 1007.42 1007.75 1008.06 1008.34 1008.61 1008.87 1009.13 1009.38 1009.63 1009.87 1010.09 1010.27 1010.41 1010.51 1010.55 1010.55 1010.50 1010.42 1010.32 1010.22 1010.13 1010.07 1010.02 1009.99 1009.98 1009.98 1009.97 1009.95 1009.91 1009.86 1009.78 1009.70 1009.63 1009.59
1007.03 1007.38 1007.73 1008.06 1008.37 1008.65 1008.90 1009.13 1009.34 1009.55 1009.77 1009.98 1010.20 1010.41 1010.61 1010.77 1010.89 1010.97 1010.98 1010.94 1010.86 1010.74 1010.60 1010.45 1010.31 1010.18 1010.07 1009.98 1009.91 1009.84 1009.77 1009.68 1009.59 1009.47 1009.34 1009.22 1009.11 1009.04
1008.38 1008.73 1009.07 1009.37 1009.62 1009.83 1010.01 1010.16 1010.31 1010.45 1010.60 1010.77 1010.94 1011.12 1011.28 1011.42 1011.53 1011.58 1011.58 1011.52 1011.41 1011.25 1011.07 1010.88 1010.69 1010.50 1010.33 1010.17 1010.03 1009.89 1009.74 1009.59 1009.42 1009.24 1009.05 1008.87 1008.71 1008.59
Thickness
5749 5748 5746 5745 5743 5741 5738 5734 5726 5720 5721 5727 5729 5733 5733 5732 5731 5731 5729 5728 5727 5725 5723 5721 5719 5717 5716 5714 5712 5710 5708 5706 5705 5703 5702 5702 5701 5700
5748 5745 5744 5743 5741 5739 5737 5734 5730 5724 5720 5725 5726 5728 5729 5728 5727 5726 5725 5724 5722 5721 5719 5717 5715 5714 5711 5709 5708 5706 5704 5703 5701 5699 5698 5697 5696 5696
5745 5743 5741 5740 5738 5736 5734 5731 5727 5724 5719 5722 5723 5724 5723 5722 5722 5721 5720 5719 5717 5716 5714 5713 5711 5709 5707 5705 5704 5702 5700 5698 5696 5694 5693 5692 5691 5691
5742 5740 5738 5738 5735 5732 5730 5727 5724 5723 5718 5715 5717 5717 5717 5716 5716 5715 5715 5714 5712 5711 5709 5708 5706 5704 5702 5700 5699 5697 5695 5693 5691 5689 5687 5686 5686 5685
5740 5737 5735 5733 5730 5728 5726 5723 5721 5720 5716 5712 5711 5711 5710 5710 5709 5709 5708 5707 5706 5705 5703 5702 5700 5699 5697 5695 5693 5691 5689 5687 5685 5683 5682 5681 5680 5679
5737 5735 5733 5730 5727 5724 5722 5719 5716 5713 5710 5706 5705 5704 5703 5703 5701 5699 5698 5698 5697 5698 5696 5695 5694 5692 5690 5688 5687 5685 5683 5681 5679 5678 5676 5675 5674 5673
5732 5730 5729 5727 5724 5721 5718 5714 5711 5706 5703 5700 5697 5696 5694 5693 5692 5692 5690 5689 5689 5689 5687 5687 5686 5685 5683 5682 5681 5679 5677 5676 5674 5672 5671 5669 5668 5667
5726 5724 5723 5720 5719 5716 5713 5710 5706 5701 5697 5694 5692 5689 5688 5687 5686 5685 5682 5680 5679 5681 5679 5678 5678 5677 5676 5675 5675 5674 5672 5670 5668 5666 5665 5664 5663 5662
5721 5718 5717 5715 5711 5708 5705 5703 5700 5698 5696 5692 5688 5686 5684 5683 5680 5677 5676 5674 5672 5673 5671 5669 5670 5668 5669 5669 5668 5667 5666 5665 5663 5661 5659 5658 5657 5656
5715 5713 5709 5706 5704 5700 5697 5693 5691 5689 5688 5686 5684 5682 5680 5678 5676 5673 5670 5668 5667 5667 5665 5661 5661 5660 5662 5662 5662 5661 5660 5659 5657 5656 5654 5652 5652 5651
5708 5705 5702 5699 5697 5693 5688 5684 5681 5680 5680 5678 5677 5675 5673 5671 5669 5665 5662 5659 5657 5657 5658 5655 5653 5652 5652 5653 5654 5654 5653 5652 5650 5649 5648 5647 5646 5645
5699 5696 5694 5692 5689 5685 5680 5676 5672 5671 5670 5669 5667 5666 5665 5663 5661 5659 5656 5651 5649 5648 5650 5647 5645 5643 5642 5644 5645 5645 5645 5644 5644 5643 5642 5641 5640 5638
5690 5687 5685 5683 5680 5676 5673 5669 5667 5664 5661 5659 5657 5656 5655 5654 5652 5651 5649 5646 5643 5642 5644 5641 5638 5635 5633 5633 5635 5637 5637 5636 5636 5636 5635 5635 5633 5632
5681 5679 5676 5673 5670 5667 5664 5662 5659 5656 5653 5650 5648 5646 5645 5644 5644 5643 5642 5640 5639 5638 5638 5636 5632 5629 5625 5624 5625 5627 5629 5629 5628 5628 5628 5628 5627 5625
5673 5670 5667 5663 5659 5655 5653 5651 5649 5647 5643 5641 5639 5637 5637 5637 5636 5635 5634 5632 5632 5631 5630 5629 5626 5623 5620 5618 5618 5618 5619 5620 5621 5620 5620 5620 5619 5619
5662 5659 5656 5652 5649 5646 5643 5641 5639 5637 5635 5632 5631 5630 5629 5628 5627 5626 5624 5622 5620 5620 5621 5620 5619 5617 5613 5613 5611 5611 5611 5611 5612 5612 5612 5612 5612 5612
5651 5646 5643 5640 5638 5635 5633 5632 5630 5628 5626 5624 5622 5621 5620 5619 5617 5616 5614 5612 5610 5608 5609 5610 5610 5609 5608 5605 5604 5604 5604 5604 5604 5604 5603 5603 5604 5605
5641 5636 5633 5630 5628 5626 5624 5622 5620 5619 5617 5616 5614 5613 5610 5609 5607 5606 5605 5603 5601 5600 5599 5599 5599 5598 5597 5597 5597 5596 5596 5596 5596 5596 5596 5595 5595 5597
5631 5628 5625 5623 5621 5618 5616 5614 5612 5611 5609 5607 5605 5603 5602 5600 5598 5597 5595 5593 5592 5591 5591 5590 5589 5587 5585 5585 5588 5590 5588 5587 5587 5587 5587 5587 5588 5590
5623 5621 5618 5616 5614 5611 5608 5606 5604 5602 5600 5598 5596 5595 5593 5592 5589 5588 5586 5584 5583 5582 5581 5580 5580 5579 5577 5576 5577 5579 5580 5579 5578 5578 5578 5579 5580 5582
5616 5614 5612 5610 5607 5605 5602 5600 5598 5595 5593 5591 5589 5587 5585 5583 5581 5579 5578 5576 5574 5572 5571 5571 5571 5571 5569 5568 5567 5569 5570 5571 5571 5570 5570 5570 5570 5571
5610 5608 5607 5605 5602 5599 5596 5593 5591 5588 5586 5584 5582 5580 5578 5576 5574 5572 5570 5567 5565 5564 5563 5562 5562 5561 5559 5558 5558 5559 5560 5561 5563 5563 5563 5564 5562 5562
5606 5603 5601 5599 5596 5593 5590 5587 5584 5582 5579 5577 5575 5573 5570 5568 5567 5565 5563 5560 5558 5556 5554 5553 5552 5550 5550 5549 5549 5549 5550 5551 5552 5553 5554 5555 5556 5558